Location: Waltman Observatory
(32.5145°N, 90.4450°W)
Time: 04:53:54
(UTC-06:00)

Amateur Radio Satellites - All Passes

Search period start: 13 February 2016 04:23
Search period end: 14 February 2016 04:23
Location: Waltman Observatory, 32.5145°N, 90.4450°W

Satellite Date Start Highest point End Downlink Frequencies (MHz)
Time Altitude Azimuth
HORYU 2 13 Feb 04:33:39 04:38:07 85° 280° (W) 04:42:35 437.375
YUBILEINY 13 Feb 04:57:11 05:01:57 15° 293° (WNW) 05:06:46 435.215
JUGNU 13 Feb 05:01:16 05:03:01 11° 163° (SSE) 05:04:47 437.505
M-CUBED/EXP-1 PRIME 13 Feb 05:10:14 05:13:00 22° 292° (WNW) 05:15:55 437.505
AUBIESAT-1 13 Feb 05:16:42 05:19:34 23° 291° (WNW) 05:22:34 437.475
PHONESAT 2.4 13 Feb 05:35:36 05:38:16 23° 216° (SW) 05:40:54 2401.200-2431.200
BRITE-PL 13 Feb 05:40:39 05:42:34 13° 91° (E) 05:44:27 437.365/2234.400
LilacSat-2 13 Feb 05:48:13 05:51:32 28° 97° (E) 05:54:50 437.200
AO-7 13 Feb 05:58:12 06:03:09 17° 304° (NW) 06:08:05 29.400- 29.500
CUBESAT XI-V 13 Feb 05:58:33 06:02:12 22° 265° (W) 06:05:52 437.345
Cosmos 2504 13 Feb 06:05:07 06:12:02 26° 288° (WNW) 06:19:10 435.465 / 435.565
CUTE-I 13 Feb 06:10:33 06:15:55 65° 102° (ESE) 06:21:14 437.470
Cubesat XI-IV 13 Feb 06:25:26 06:30:51 90° 286° (WNW) 06:36:14 437.490
GOMX 1 13 Feb 06:26:30 06:29:38 20° 95° (E) 06:32:42 467.674
STRAND 1 13 Feb 06:28:09 06:33:15 82° 76° (ENE) 06:38:24 437.568
JUGNU 13 Feb 06:47:07 06:51:23 20° 171° (S) 06:55:39 437.505
O/OREOS (USA 219) 13 Feb 06:47:56 06:52:20 64° 106° (ESE) 06:56:47 437.305
CUTE 1.7 + AOD 2 13 Feb 07:08:13 07:08:53 10° 92° (E) 07:09:34 437.475
BRITE-PL 13 Feb 07:17:06 07:21:20 40° 287° (WNW) 07:25:19 437.365/2234.400
LilacSat-2 13 Feb 07:23:32 07:25:34 14° 290° (WNW) 07:27:37 437.200
DOVE 4 13 Feb 07:26:03 07:30:06 50° 100° (E) 07:34:07 437.250
PRISM 13 Feb 07:30:33 07:34:40 64° 259° (W) 07:38:49 437.425
AO-85 13 Feb 07:40:13 07:41:50 11° 104° (ESE) 07:43:26 145.980
CANX-2 13 Feb 07:50:52 07:54:58 43° 99° (E) 07:59:04 2200.000
CUTE-I 13 Feb 07:52:50 07:55:20 13° 296° (WNW) 07:57:51 437.470
CINEMA 3 13 Feb 07:53:12 07:56:56 31° 98° (E) 08:00:43 145.822/145.860
GOMX 1 13 Feb 08:04:15 08:07:41 24° 289° (WNW) 08:11:02 467.674
HO-68 13 Feb 08:06:17 08:13:24 61° 102° (ESE) 08:20:29 435.675
COMPASS 1 13 Feb 08:19:30 08:23:33 44° 99° (E) 08:27:35 437.405
GONETS M04 13 Feb 08:21:21 08:29:58 72° 93° (E) 08:38:37
PCSat 13 Feb 08:26:25 08:29:30 16° 104° (ESE) 08:32:37 145.827
SRMSAT 13 Feb 08:30:29 08:34:29 19° 170° (S) 08:38:30 437.500
RS-15 13 Feb 08:31:35 08:35:43 13° 97° (E) 08:39:52 29.354- 29.394
JUGNU 13 Feb 08:35:11 08:39:49 24° 182° (S) 08:44:25 437.505
SEEDS 13 Feb 08:40:22 08:44:37 69° 283° (WNW) 08:48:50 437.485
CUTE 1.7 + AOD 2 13 Feb 08:40:47 08:44:57 49° 285° (WNW) 08:49:05 437.475
ANTELSAT 13 Feb 08:40:57 08:42:53 13° 68° (ENE) 08:44:48 437.575/2403.000
AAUSAT CUBESAT 2 13 Feb 08:44:23 08:48:36 75° 101° (E) 08:52:47 437.432
TIGRISAT 13 Feb 08:46:08 08:48:24 14° 68° (ENE) 08:50:40 435.000
Oscar 11 13 Feb 08:47:44 08:51:33 29° 97° (E) 08:55:20 145.826/435.025
Cosmos 2499 13 Feb 08:59:47 09:08:12 58° 91° (E) 09:16:50 435.465 / 435.565
UWE-3 13 Feb 09:03:44 09:07:55 53° 100° (E) 09:12:11 435.000/436.395/437.385
CUBEBUG 2 13 Feb 09:11:00 09:15:14 85° 286° (WNW) 09:19:36 437.445
AO-85 13 Feb 09:16:20 09:21:36 76° 299° (WNW) 09:27:06 145.980
DELFI C3 13 Feb 09:28:28 09:32:23 47° 100° (E) 09:36:16 145.870
CANX-2 13 Feb 09:28:29 09:30:24 13° 292° (WNW) 09:32:18 2200.000
UNISAT 6 13 Feb 09:30:03 09:34:14 51° 75° (ENE) 09:38:23 437.425
CINEMA 3 13 Feb 09:31:17 09:33:49 16° 291° (WNW) 09:36:23 145.822/145.860
NANOSAT C BR1 13 Feb 09:32:52 09:33:25 10° 66° (ENE) 09:33:58 145.865
HUMSAT D 13 Feb 09:35:44 09:39:01 22° 96° (E) 09:42:18 437.325/437.525
QB50P1 13 Feb 09:41:05 09:43:20 14° 68° (ENE) 09:45:34 145.935-145.965
ZACube-1 13 Feb 09:49:07 09:53:20 61° 284° (WNW) 09:57:38 437.345
HO-68 13 Feb 09:55:18 10:00:31 22° 298° (WNW) 10:05:43 435.675
FUNcube-1 13 Feb 09:56:12 10:00:21 52° 285° (WNW) 10:04:35 145.935
COMPASS 1 13 Feb 09:57:01 09:58:42 12° 292° (WNW) 10:00:22 437.405
AIST 1 13 Feb 10:00:30 10:04:53 81° 94° (E) 10:09:18
PCSat 13 Feb 10:07:05 10:12:23 54° 298° (WNW) 10:17:42 145.827
ANTELSAT 13 Feb 10:15:08 10:19:13 42° 261° (W) 10:23:17 437.575/2403.000
BUGSAT 1 13 Feb 10:15:25 10:18:06 17° 69° (ENE) 10:20:45 437.445
SRMSAT 13 Feb 10:18:27 10:23:04 24° 179° (S) 10:27:40 437.500
TIGRISAT 13 Feb 10:20:45 10:24:46 38° 261° (W) 10:28:44 435.000
GONETS M04 13 Feb 10:21:38 10:27:29 20° 290° (WNW) 10:33:24
JUGNU 13 Feb 10:24:21 10:28:13 18° 192° (SSW) 10:32:04 437.505
Oscar 11 13 Feb 10:24:23 10:27:26 19° 290° (WNW) 10:30:29 145.826/435.025
UKube-1 13 Feb 10:24:50 10:26:01 11° 93° (E) 10:27:12 .
50 SAT 13 Feb 10:30:30 10:33:10 18° 96° (E) 10:35:49 437.505
AISAT 13 Feb 10:31:53 10:34:46 17° 95° (E) 10:37:38 437.250
POLYITAN 1 13 Feb 10:33:05 10:37:15 64° 76° (ENE) 10:41:26 437.675
QB50P2 13 Feb 10:33:30 10:37:42 67° 77° (ENE) 10:41:55 145.880/145.840
RS-15 13 Feb 10:35:01 10:45:59 78° 114° (ESE) 10:57:33 29.354- 29.394
CUBEBUG 1 13 Feb 10:40:20 10:43:10 17° 95° (E) 10:45:58 437.445
DX 1 13 Feb 10:41:46 10:45:12 23° 97° (E) 10:48:37 434.975-435.025
UWE-3 13 Feb 10:43:11 10:43:55 10° 293° (WNW) 10:44:38 435.000/436.395/437.385
Cosmos 2499 13 Feb 10:54:35 11:01:41 27° 287° (WNW) 11:08:55 435.465 / 435.565
AO-85 13 Feb 11:01:36 11:03:02 11° 316° (NW) 11:04:29 145.980
POPSAT HIP 1 13 Feb 11:02:18 11:06:27 55° 260° (W) 11:10:36 437.405
DUCHIFAT 1 13 Feb 11:04:10 11:08:18 56° 259° (W) 11:12:26 145.980
NANOSAT C BR1 13 Feb 11:04:33 11:08:40 52° 260° (W) 11:12:47 145.865
DELFI C3 13 Feb 11:06:06 11:06:49 10° 293° (WNW) 11:07:32 145.870
ESTCUBE 1 13 Feb 11:08:00 11:12:27 53° 100° (E) 11:16:51 437.505/2401.250
HUMSAT D 13 Feb 11:11:11 11:14:32 23° 289° (WNW) 11:17:54 437.325/437.525
QB50P1 13 Feb 11:14:50 11:18:45 37° 261° (W) 11:22:41 145.935-145.965
JAS-2 13 Feb 11:26:15 11:30:12 15° 64° (ENE) 11:33:59 435.910
DANDE 13 Feb 11:30:34 11:32:39 12° 61° (ENE) 11:34:34 436.750
BUGSAT 1 13 Feb 11:49:29 11:53:12 30° 262° (W) 11:56:55 437.445
VELOX 1 13 Feb 11:49:38 11:53:57 55° 285° (WNW) 11:58:13 145.980
TISAT 1 13 Feb 11:56:07 11:58:19 14° 94° (E) 12:00:31 437.305
UKube-1 13 Feb 11:58:07 12:02:16 47° 286° (WNW) 12:06:23 .
SPROUT 13 Feb 12:00:31 12:04:41 52° 100° (E) 12:08:50 437.525
50 SAT 13 Feb 12:04:04 12:07:05 22° 288° (WNW) 12:10:05 437.505
CUSAT 1 13 Feb 12:04:23 12:09:09 45° 76° (ENE) 12:12:46 437.405
AISAT 13 Feb 12:07:22 12:11:17 32° 288° (WNW) 12:15:10 437.250
SRMSAT 13 Feb 12:07:30 12:11:38 20° 190° (S) 12:15:45 437.500
CUBEBUG 1 13 Feb 12:15:38 12:19:28 31° 288° (WNW) 12:23:17 437.445
DX 1 13 Feb 12:17:48 12:21:16 24° 290° (WNW) 12:24:44 434.975-435.025
Oscar 19 13 Feb 12:23:05 12:28:04 50° 73° (ENE) 12:33:04 437.125/150
ESTCUBE 1 13 Feb 12:47:07 12:48:45 12° 294° (WNW) 12:50:21 437.505/2401.250
RS-15 13 Feb 12:50:18 12:59:36 29° 317° (NW) 13:09:22 29.354- 29.394
SO-50 13 Feb 12:51:20 12:55:56 48° 58° (ENE) 13:00:24 436.795
ITUPSAT 1 13 Feb 12:53:10 12:53:18 10° 92° (E) 12:53:27 437.325
BEESAT 13 Feb 12:57:15 12:59:11 12° 93° (E) 13:01:05 436.000
JAS-2 13 Feb 13:06:46 13:14:29 87° 255° (WSW) 13:21:33 435.910
AO-7 13 Feb 13:09:16 13:13:24 15° 54° (NE) 13:17:31 29.400- 29.500
DANDE 13 Feb 13:10:39 13:16:43 66° 266° (W) 13:21:10 436.750
YUBILEINY 13 Feb 13:11:55 13:19:49 35° 76° (ENE) 13:27:36 435.215
Cosmos 2491 13 Feb 13:15:29 13:21:17 20° 82° (E) 13:27:03 435.465 / 435.565
ISS 13 Feb 13:21:14 13:24:24 52° 133° (SE) 13:27:34 145.825
Gurwin Techsat 1B 13 Feb 13:25:49 13:31:06 76° 75° (ENE) 13:36:25 435.225
TISAT 1 13 Feb 13:30:16 13:34:03 35° 287° (WNW) 13:37:50 437.305
SPROUT 13 Feb 13:39:24 13:40:09 10° 294° (WNW) 13:40:54 437.525
ITAMSAT 1 13 Feb 13:40:39 13:45:40 53° 73° (ENE) 13:50:43 435.822/435.867
SWISSCUBE 13 Feb 13:47:44 13:52:26 53° 101° (E) 13:57:07 437.505
SRMSAT 13 Feb 13:59:19 14:00:08 10° 198° (SSW) 14:00:57 437.500
Oscar 19 13 Feb 14:04:38 14:07:35 15° 266° (W) 14:10:31 437.125/150
Cosmos 2504 13 Feb 14:11:32 14:15:52 15° 66° (ENE) 14:20:02 435.465 / 435.565
M-CUBED/EXP-1 PRIME 13 Feb 14:21:44 14:22:03 10° 65° (ENE) 14:22:22 437.505
ITUPSAT 1 13 Feb 14:26:42 14:31:28 63° 285° (WNW) 14:36:13 437.325
BEESAT 13 Feb 14:32:32 14:37:12 53° 286° (WNW) 14:41:51 436.000
SO-50 13 Feb 14:33:30 14:35:56 14° 253° (WSW) 14:38:19 436.795
BEESAT 3 13 Feb 14:44:05 14:46:26 15° 109° (ESE) 14:48:48 437.485
AO-7 13 Feb 14:56:30 15:04:51 80° 71° (ENE) 15:13:15 29.400- 29.500
JAS-2 13 Feb 14:57:00 14:59:54 12° 268° (W) 15:02:44 435.910
ISS 13 Feb 14:59:15 15:01:03 14° 328° (NNW) 15:02:52 145.825
KKS-1 13 Feb 15:06:28 15:10:41 43° 100° (E) 15:14:52 437.445
YUBILEINY 13 Feb 15:08:28 15:16:34 43° 272° (W) 15:24:38 435.215
Cosmos 2491 13 Feb 15:08:32 15:17:11 69° 278° (W) 15:25:52 435.465 / 435.565
BEESAT 2 13 Feb 15:14:53 15:18:01 22° 111° (ESE) 15:21:10 435.950
RS-15 13 Feb 15:16:42 15:18:09 10° 352° (N) 15:19:37 29.354- 29.394
ITAMSAT 1 13 Feb 15:22:38 15:25:22 14° 267° (W) 15:28:07 435.822/435.867
HORYU 2 13 Feb 15:27:08 15:31:21 48° 74° (ENE) 15:35:37 437.375
SWISSCUBE 13 Feb 15:27:30 15:29:43 13° 294° (WNW) 15:31:56 437.505
MOZHAYETS 4 13 Feb 15:29:45 15:33:51 30° 97° (E) 15:37:55
M-CUBED/EXP-1 PRIME 13 Feb 15:53:03 15:56:26 35° 256° (WSW) 15:59:37 437.505
AUBIESAT-1 13 Feb 15:59:04 16:02:27 37° 256° (WSW) 16:05:40 437.475
Cosmos 2504 13 Feb 16:01:55 16:10:23 86° 266° (W) 16:18:10 435.465 / 435.565
STARS 13 Feb 16:14:42 16:18:58 54° 285° (WNW) 16:23:13 437.465
BEESAT 3 13 Feb 16:20:18 16:23:53 32° 303° (WNW) 16:27:30 437.485
KKS-1 13 Feb 16:44:37 16:46:51 14° 293° (WNW) 16:49:04 437.445
BRITE-PL 13 Feb 16:46:13 16:49:03 14° 66° (ENE) 16:51:51 437.365/2234.400
BEESAT 2 13 Feb 16:52:31 16:55:46 23° 305° (NW) 16:59:03 435.950
AO-7 13 Feb 16:53:15 16:58:15 17° 266° (W) 17:03:17 29.400- 29.500
O/OREOS (USA 219) 13 Feb 17:02:23 17:06:55 58° 69° (ENE) 17:11:26 437.305
HORYU 2 13 Feb 17:06:47 17:08:08 11° 267° (W) 17:09:30 437.375
MOZHAYETS 4 13 Feb 17:07:20 17:10:47 21° 290° (WNW) 17:14:13
CUTE-I 13 Feb 17:27:47 17:33:02 68° 75° (ENE) 17:38:21 437.470
GOMX 1 13 Feb 17:29:47 17:33:21 19° 69° (ENE) 17:36:50 467.674
RS-15 13 Feb 17:31:02 17:38:29 18° 31° (NNE) 17:46:00 29.354- 29.394
AIST 2 13 Feb 17:41:42 17:45:52 79° 298° (WNW) 17:50:03 435.215
Cubesat XI-IV 13 Feb 17:42:48 17:48:08 86° 257° (WSW) 17:53:30 437.490
AO-85 13 Feb 17:53:42 17:58:06 29° 54° (NE) 18:02:10 145.980
CUBESAT XI-V 13 Feb 17:58:35 18:03:13 62° 285° (WNW) 18:07:48 437.345
LilacSat-2 13 Feb 17:59:23 18:03:07 54° 260° (W) 18:06:51 437.200
Cosmos 2504 13 Feb 17:59:32 18:02:15 12° 283° (WNW) 18:04:54 435.465 / 435.565
BRITE-PL 13 Feb 18:21:16 18:26:55 68° 259° (WSW) 18:32:28 437.365/2234.400
DOVE 4 13 Feb 18:26:29 18:31:02 34° 73° (ENE) 18:35:22 437.250
HO-68 13 Feb 18:30:42 18:36:36 29° 65° (ENE) 18:42:30 435.675
GONETS M04 13 Feb 18:38:07 18:45:25 28° 74° (ENE) 18:52:43
CANX-2 13 Feb 18:40:14 18:43:03 18° 69° (ENE) 18:45:52 2200.000
STRAND 1 13 Feb 18:43:32 18:48:23 40° 99° (E) 18:53:12 437.568
CINEMA 3 13 Feb 18:51:07 18:54:18 19° 70° (ENE) 18:57:24 145.822/145.860
PCSat 13 Feb 18:59:32 19:04:44 45° 61° (ENE) 19:09:53 145.827
Cosmos 2499 13 Feb 19:00:38 19:04:12 13° 66° (ENE) 19:07:40 435.465 / 435.565
GOMX 1 13 Feb 19:05:55 19:11:05 45° 261° (W) 19:16:02 467.674
COMPASS 1 13 Feb 19:07:01 19:09:41 17° 69° (ENE) 19:12:22 437.405
CUTE-I 13 Feb 19:11:53 19:13:28 11° 268° (W) 19:15:04 437.470
PRISM 13 Feb 19:17:26 19:20:48 24° 97° (E) 19:24:09 437.425
SEEDS 13 Feb 19:27:31 19:31:27 42° 74° (ENE) 19:35:25 437.485
CUTE 1.7 + AOD 2 13 Feb 19:28:33 19:32:41 61° 77° (ENE) 19:36:52 437.475
AAUSAT CUBESAT 2 13 Feb 19:30:39 19:34:04 26° 72° (ENE) 19:37:32 437.432
AO-85 13 Feb 19:34:27 19:38:26 25° 251° (WSW) 19:42:07 145.980
Oscar 11 13 Feb 19:39:39 19:41:44 13° 68° (ENE) 19:43:49 145.826/435.025
RS-15 13 Feb 19:42:08 19:54:13 60° 57° (ENE) 20:06:19 29.354- 29.394
UWE-3 13 Feb 19:57:01 20:00:24 24° 72° (ENE) 20:03:46 435.000/436.395/437.385
CUBEBUG 2 13 Feb 20:04:42 20:08:47 43° 75° (ENE) 20:12:47 437.445
DOVE 4 13 Feb 20:04:56 20:08:41 21° 264° (W) 20:12:20 437.250
DELFI C3 13 Feb 20:11:41 20:14:00 15° 69° (ENE) 20:16:19 145.870
AIST 1 13 Feb 20:14:25 20:16:16 12° 74° (ENE) 20:18:06
CANX-2 13 Feb 20:14:59 20:18:39 29° 263° (W) 20:22:21 2200.000
HO-68 13 Feb 20:17:07 20:23:56 47° 260° (W) 20:30:49 435.675
STRAND 1 13 Feb 20:23:35 20:27:12 20° 293° (WNW) 20:30:49 437.568
CINEMA 3 13 Feb 20:27:08 20:31:13 31° 262° (W) 20:35:10 145.822/145.860
GONETS M04 13 Feb 20:34:02 20:42:29 53° 270° (W) 20:50:57
ZACube-1 13 Feb 20:40:21 20:44:27 55° 76° (ENE) 20:48:32 437.345
COMPASS 1 13 Feb 20:41:21 20:45:00 30° 263° (W) 20:48:40 437.405
PCSat 13 Feb 20:43:59 20:47:43 19° 255° (WSW) 20:51:27 145.827
FUNcube-1 13 Feb 20:47:03 20:51:12 64° 77° (ENE) 20:55:18 145.935
Cosmos 2499 13 Feb 20:50:20 20:58:32 90° 262° (W) 21:06:03 435.465 / 435.565
PRISM 13 Feb 20:52:50 20:55:58 21° 290° (WNW) 20:59:05 437.425
SEEDS 13 Feb 21:05:55 21:07:19 11° 267° (W) 21:08:44 437.485
AAUSAT CUBESAT 2 13 Feb 21:06:37 21:09:31 19° 265° (W) 21:12:27 437.432
Oscar 11 13 Feb 21:13:25 21:17:28 41° 261° (W) 21:21:33 145.826/435.025
UNISAT 6 13 Feb 21:27:18 21:29:59 16° 95° (E) 21:32:41 437.425
ISS 13 Feb 21:28:40 21:31:55 87° 49° (NE) 21:35:08 145.825
UWE-3 13 Feb 21:33:33 21:36:46 21° 264° (W) 21:39:58 435.000/436.395/437.385
DX 1 13 Feb 21:34:42 21:36:21 12° 66° (ENE) 21:38:01 434.975-435.025
CUBEBUG 2 13 Feb 21:44:05 21:45:33 12° 266° (W) 21:47:01 437.445
DELFI C3 13 Feb 21:45:07 21:48:37 30° 263° (W) 21:52:09 145.870
AIST 1 13 Feb 21:50:00 21:54:01 39° 268° (W) 21:58:00
RS-15 13 Feb 21:55:29 22:06:03 36° 255° (WSW) 22:16:39 29.354- 29.394
HUMSAT D 13 Feb 21:57:11 22:01:12 60° 259° (W) 22:05:14 437.325/437.525
ESTCUBE 1 13 Feb 22:03:18 22:07:10 28° 71° (ENE) 22:11:03 437.505/2401.250
PHONESAT 2.4 13 Feb 22:09:55 22:13:07 57° 150° (SSE) 22:16:22 2401.200-2431.200
ANTELSAT 13 Feb 22:10:49 22:15:08 53° 100° (E) 22:19:32 437.575/2403.000
TIGRISAT 13 Feb 22:16:07 22:20:27 58° 101° (E) 22:24:53 435.000
POLYITAN 1 13 Feb 22:24:07 22:26:30 15° 94° (E) 22:28:52 437.675
QB50P2 13 Feb 22:24:26 22:26:56 15° 95° (E) 22:29:27 145.880/145.840
50 SAT 13 Feb 22:38:48 22:42:30 86° 75° (ENE) 22:46:13 437.505
VELOX 1 13 Feb 22:41:59 22:46:25 72° 75° (ENE) 22:50:52 145.980
Cosmos 2499 13 Feb 22:47:34 22:50:12 12° 282° (WNW) 22:52:47 435.465 / 435.565
UKube-1 13 Feb 22:47:41 22:51:59 77° 77° (ENE) 22:56:21 .
SPROUT 13 Feb 22:50:21 22:53:42 23° 71° (ENE) 22:57:03 437.525
POPSAT HIP 1 13 Feb 22:51:55 22:55:41 32° 98° (E) 22:59:26 437.405
DUCHIFAT 1 13 Feb 22:53:12 22:56:55 30° 98° (E) 23:00:36 145.980
NANOSAT C BR1 13 Feb 22:53:45 22:57:32 32° 98° (E) 23:01:18 145.865
AISAT 13 Feb 22:59:30 23:03:56 66° 258° (WSW) 23:08:23 437.250
UNISAT 6 13 Feb 23:02:44 23:06:44 36° 287° (WNW) 23:10:50 437.425
QB50P1 13 Feb 23:03:54 23:07:57 46° 100° (E) 23:11:59 145.935-145.965
CUBEBUG 1 13 Feb 23:06:11 23:10:36 71° 259° (WSW) 23:15:02 437.445
DX 1 13 Feb 23:07:50 23:12:04 49° 260° (W) 23:16:20 434.975-435.025
CUSAT 1 13 Feb 23:21:19 23:24:33 13° 82° (E) 23:27:47 437.405
BUGSAT 1 13 Feb 23:35:29 23:39:24 49° 100° (E) 23:43:17 437.445
ESTCUBE 1 13 Feb 23:40:31 23:43:55 21° 264° (W) 23:47:21 437.505/2401.250
PHONESAT 2.4 13 Feb 23:47:34 23:50:30 29° 344° (NNW) 23:53:27 2401.200-2431.200
ANTELSAT 13 Feb 23:50:01 23:51:23 11° 293° (WNW) 23:52:45 437.575/2403.000
TIGRISAT 13 Feb 23:56:10 23:56:38 10° 294° (WNW) 23:57:07 435.000
POLYITAN 1 13 Feb 23:58:34 00:02:22 34° 287° (WNW) 00:06:10 437.675
QB50P2 13 Feb 23:59:01 00:02:47 32° 287° (WNW) 00:06:33 145.880/145.840
TISAT 1 14 Feb 00:16:46 00:21:00 89° 93° (E) 00:25:14 437.305
JAS-2 14 Feb 00:26:00 00:27:15 11° 91° (E) 00:28:29 435.910
SPROUT 14 Feb 00:26:05 00:29:31 23° 264° (W) 00:32:59 437.525
DANDE 14 Feb 00:28:33 00:34:59 29° 86° (E) 00:41:52 436.750
POPSAT HIP 1 14 Feb 00:28:34 00:31:11 16° 291° (WNW) 00:33:47 437.405
DUCHIFAT 1 14 Feb 00:29:41 00:32:21 17° 291° (WNW) 00:35:01 145.980
NANOSAT C BR1 14 Feb 00:30:27 00:32:59 16° 291° (WNW) 00:35:30 145.865
Oscar 19 14 Feb 00:39:50 00:44:02 25° 96° (E) 00:48:12 437.125/150
QB50P1 14 Feb 00:41:53 00:43:16 11° 293° (WNW) 00:44:40 145.935-145.965
BEESAT 3 14 Feb 00:41:57 00:45:30 31° 57° (ENE) 00:49:00 437.485
SWISSCUBE 14 Feb 00:49:49 00:54:09 36° 72° (ENE) 00:58:31 437.505
CUSAT 1 14 Feb 00:57:44 01:05:42 80° 95° (E) 01:13:42 437.405
BEESAT 2 14 Feb 01:14:14 01:18:05 45° 59° (ENE) 01:21:53 435.950
Cosmos 2491 14 Feb 01:24:38 01:33:04 49° 79° (E) 01:41:28 435.465 / 435.565
PHONESAT 2.4 14 Feb 01:25:52 01:28:21 19° 1° (N) 01:30:49 2401.200-2431.200
ITUPSAT 1 14 Feb 01:28:36 01:33:22 88° 82° (E) 01:38:11 437.325
BEESAT 14 Feb 01:34:02 01:38:47 79° 257° (WSW) 01:43:34 436.000
Gurwin Techsat 1B 14 Feb 01:46:52 01:51:57 44° 100° (E) 01:56:59 435.225
ITAMSAT 1 14 Feb 01:58:34 02:03:01 27° 97° (E) 02:07:24 435.822/435.867
KKS-1 14 Feb 02:00:35 02:04:05 23° 70° (ENE) 02:07:35 437.445
YUBILEINY 14 Feb 02:06:36 02:14:49 47° 89° (E) 02:23:05 435.215
JAS-2 14 Feb 02:07:33 02:12:51 61° 286° (WNW) 02:17:56 435.910
AIST 2 14 Feb 02:08:25 02:11:12 17° 53° (NE) 02:13:58 435.215
DANDE 14 Feb 02:09:45 02:17:23 56° 282° (WNW) 02:25:42 436.750
Oscar 19 14 Feb 02:18:52 02:23:16 30° 290° (WNW) 02:27:39 437.125/150
BEESAT 3 14 Feb 02:20:34 02:22:57 16° 251° (WSW) 02:25:19 437.485
MOZHAYETS 4 14 Feb 02:28:09 02:31:07 17° 68° (ENE) 02:34:06
SWISSCUBE 14 Feb 02:28:47 02:32:01 18° 265° (W) 02:35:15 437.505
CUSAT 1 14 Feb 02:43:08 02:48:36 20° 290° (WNW) 02:54:01 437.405
Cosmos 2504 14 Feb 02:44:58 02:49:02 14° 78° (ENE) 02:53:08 435.465 / 435.565
BEESAT 2 14 Feb 02:54:46 02:55:30 10° 253° (WSW) 02:56:13 435.950
SO-50 14 Feb 03:00:38 03:05:16 46° 114° (ESE) 03:10:00 436.795
PHONESAT 2.4 14 Feb 03:03:06 03:06:08 34° 18° (NNE) 03:09:10 2401.200-2431.200
AO-7 14 Feb 03:03:57 03:11:25 36° 99° (E) 03:18:47 29.400- 29.500
STARS 14 Feb 03:06:26 03:10:49 72° 76° (ENE) 03:15:12 437.465
Cosmos 2491 14 Feb 03:22:13 03:29:25 30° 275° (W) 03:36:39 435.465 / 435.565
HORYU 2 14 Feb 03:24:17 03:26:29 13° 94° (E) 03:28:41 437.375
Gurwin Techsat 1B 14 Feb 03:27:51 03:31:30 19° 293° (WNW) 03:35:10 435.225
KKS-1 14 Feb 03:36:49 03:40:30 25° 263° (W) 03:44:11 437.445
M-CUBED/EXP-1 PRIME 14 Feb 03:36:55 03:39:20 17° 102° (ESE) 03:41:51 437.505
ITAMSAT 1 14 Feb 03:37:54 03:42:21 29° 291° (WNW) 03:46:47 435.822/435.867
AUBIESAT-1 14 Feb 03:42:34 03:44:56 16° 102° (ESE) 03:47:23 437.475
AIST 2 14 Feb 03:46:02 03:49:46 34° 247° (WSW) 03:53:27 435.215
MOZHAYETS 4 14 Feb 04:03:48 04:07:59 35° 262° (W) 04:12:11
YUBILEINY 14 Feb 04:04:08 04:11:42 32° 285° (WNW) 04:19:21 435.215
